Total_Precipitation_Accumulation
1.51 1.59 1.65 1.74 1.80 1.85 1.89 1.88 1.88 1.89 1.91 1.91 2.01 2.06 2.07 2.08 2.26 2.43 2.34 2.58 2.74 2.79 2.62 2.59 2.55 2.58 2.59 2.43 2.51 2.62 2.69 3.00 2.98 2.35 2.18 2.27 2.37 2.35 2.39 2.27 2.16 2.15 1.99
1.47 1.60 1.67 1.85 1.89 1.84 1.89 2.08 2.09 2.04 2.01 2.00 2.08 2.16 2.14 2.16 2.31 2.30 2.15 2.27 2.48 2.68 2.90 3.03 2.78 2.78 2.79 2.62 2.63 2.63 2.69 2.93 2.96 2.75 2.53 2.48 2.54 2.47 2.48 2.29 1.94 1.85 1.94
1.39 1.54 1.75 1.85 1.92 2.06 2.23 2.39 2.41 2.32 2.26 2.26 2.33 2.26 2.28 2.34 2.33 2.24 2.26 2.29 2.39 2.47 2.73 2.98 2.96 3.10 2.86 2.88 2.81 2.70 2.71 2.73 2.91 2.75 2.54 2.68 2.69 2.63 2.55 2.17 1.99 2.07 1.90
1.57 1.75 1.89 2.09 2.23 2.34 2.31 2.38 2.40 2.40 2.42 2.43 2.48 2.41 2.37 2.41 2.42 2.42 2.42 2.38 2.44 2.41 2.46 2.59 2.70 2.98 2.95 3.00 2.84 2.86 2.99 3.06 3.16 2.99 2.81 2.88 2.99 2.98 2.83 2.46 2.29 2.19 2.07
1.87 1.97 2.01 2.11 2.25 2.44 2.60 2.62 2.59 2.55 2.48 2.65 2.63 2.55 2.56 2.57 2.36 2.50 2.72 2.69 2.74 2.53 2.44 2.40 2.37 2.61 2.69 2.75 2.51 2.68 2.97 3.04 3.11 3.03 2.92 2.93 2.93 3.09 2.80 2.61 2.45 2.42 2.30
2.35 2.48 2.59 2.67 2.75 2.85 2.94 2.96 2.98 2.91 2.85 2.77 2.65 2.70 2.69 2.46 2.60 2.68 2.61 2.64 2.84 2.82 2.69 2.61 2.47 2.42 2.41 2.44 2.48 2.55 2.70 2.72 2.78 2.86 2.77 2.76 2.82 2.97 3.14 3.01 2.79 2.58 2.32
2.52 2.63 2.76 2.85 3.00 3.14 3.18 3.20 3.05 2.98 2.89 2.77 2.77 2.81 2.74 2.76 2.75 2.54 2.40 2.39 2.47 2.57 2.64 2.62 2.34 2.20 2.42 2.31 2.48 2.49 2.31 2.24 2.26 2.40 2.40 2.40 2.85 3.16 3.48 3.15 2.96 2.77 2.48
2.70 2.80 2.86 2.91 2.97 3.15 3.34 3.25 3.08 3.03 2.96 2.91 2.85 2.73 2.66 2.56 2.61 2.38 2.37 2.24 2.18 2.14 2.27 2.39 2.33 2.23 2.27 2.37 2.29 2.06 1.85 1.85 1.90 1.82 1.85 2.09 2.53 3.11 3.42 3.37 3.35 3.08 2.73
2.42 2.62 2.64 2.78 2.95 3.04 3.07 3.08 3.14 3.11 2.90 2.74 2.63 2.60 2.55 2.61 2.84 2.58 2.42 2.18 2.16 2.02 2.01 2.01 2.04 1.92 2.07 2.17 2.06 1.84 1.69 1.63 1.69 1.71 1.69 1.89 2.15 2.50 2.93 3.14 3.02 2.83 2.43
2.37 2.58 2.76 2.91 3.05 3.07 3.09 3.20 3.22 3.18 3.15 3.10 2.97 2.88 2.78 2.75 2.97 2.71 2.49 2.23 2.20 2.13 2.11 2.07 2.13 1.90 1.83 1.78 1.70 1.71 1.53 1.44 1.57 1.55 1.51 1.55 1.66 1.97 2.44 2.53 2.54 2.63 2.35
2.41 2.51 2.65 2.84 3.06 3.31 3.48 3.39 3.36 3.32 3.24 3.06 2.89 2.75 2.70 2.69 2.66 2.48 2.31 2.02 1.96 2.01 1.88 1.76 1.79 1.81 1.60 1.45 1.43 1.39 1.33 1.40 1.48 1.47 1.39 1.38 1.51 1.69 1.88 2.13 2.35 2.38 2.25
2.53 2.62 2.69 2.88 2.95 3.10 3.37 3.37 3.29 3.25 3.17 3.06 2.99 2.90 2.80 2.64 2.41 2.19 2.05 1.89 1.86 1.80 1.83 1.82 1.86 1.88 1.63 1.48 1.32 1.20 1.26 1.27 1.27 1.37 1.33 1.26 1.31 1.43 1.69 1.98 2.25 2.34 2.28
2.49 2.65 2.83 2.94 2.99 3.10 3.28 3.33 3.29 3.20 3.08 2.94 2.79 2.58 2.56 2.60 2.51 2.28 2.00 1.81 1.76 1.65 1.81 2.11 2.14 2.07 1.83 1.55 1.44 1.45 1.41 1.28 1.28 1.31 1.27 1.22 1.28 1.45 1.73 2.05 2.29 2.48 2.46
2.44 2.50 2.65 2.80 2.93 3.09 3.11 2.99 2.86 2.73 2.66 2.62 2.45 2.32 2.35 2.42 2.31 2.21 2.04 1.93 1.91 1.79 1.81 2.08 2.24 2.22 2.07 1.86 1.76 1.68 1.49 1.43 1.49 1.46 1.48 1.52 1.63 1.77 1.91 2.04 2.26 2.43 2.51
2.46 2.53 2.51 2.53 2.62 2.78 2.85 2.81 2.69 2.52 2.39 2.32 2.19 2.19 2.18 2.15 2.19 2.23 2.04 1.92 1.91 1.96 2.03 2.20 2.33 2.41 2.41 2.34 2.24 2.15 2.03 1.88 1.71 1.66 1.72 1.72 1.78 1.88 1.93 2.07 2.30 2.40 2.34
2.54 2.41 2.32 2.24 2.25 2.31 2.33 2.36 2.49 2.37 2.36 2.22 2.09 2.01 1.94 1.98 2.04 2.00 1.90 1.84 1.86 1.98 1.99 2.06 2.29 2.48 2.56 2.63 2.66 2.54 2.32 2.13 1.96 1.93 1.88 1.86 1.89 1.90 1.95 2.10 2.30 2.40 2.28
2.44 2.28 2.18 2.12 2.13 2.08 2.05 2.10 2.21 2.27 2.24 2.14 2.10 1.95 1.80 1.84 1.82 1.81 1.81 1.77 1.80 1.86 1.83 1.94 2.06 2.16 2.36 2.57 2.64 2.60 2.38 2.25 2.27 2.22 2.13 2.09 2.11 2.12 2.13 2.23 2.41 2.52 2.48
2.23 2.30 2.18 2.06 2.11 2.15 2.16 2.14 2.14 2.17 2.15 2.06 2.06 2.01 1.77 1.66 1.65 1.64 1.65 1.57 1.45 1.48 1.56 1.75 1.94 2.08 2.22 2.46 2.59 2.63 2.56 2.49 2.50 2.53 2.49 2.41 2.39 2.33 2.23 2.18 2.32 2.44 2.49
2.08 2.14 2.18 2.18 2.16 2.21 2.25 2.16 2.07 2.04 2.03 1.93 1.85 1.90 1.86 1.69 1.60 1.58 1.57 1.40 1.34 1.37 1.47 1.51 1.59 1.79 2.00 2.23 2.47 2.62 2.63 2.53 2.48 2.53 2.50 2.43 2.41 2.40 2.27 2.16 2.22 2.41 2.49
2.01 2.17 2.11 2.13 2.15 2.12 2.17 2.18 2.16 2.16 2.11 2.01 1.90 1.86 1.84 1.69 1.55 1.66 1.72 1.66 1.58 1.54 1.53 1.54 1.63 1.81 1.99 2.21 2.40 2.50 2.54 2.54 2.50 2.47 2.41 2.34 2.33 2.32 2.18 2.12 2.15 2.24 2.28
1.90 1.97 2.05 1.88 1.90 2.02 2.02 2.06 2.12 2.16 2.14 2.05 1.91 1.90 1.81 1.58 1.63 1.73 1.84 1.88 1.79 1.69 1.64 1.64 1.68 1.76 1.93 2.13 2.29 2.40 2.44 2.47 2.49 2.49 2.45 2.36 2.31 2.32 2.27 2.23 2.21 2.23 2.25
1.94 1.82 1.79 1.81 1.95 2.04 2.10 2.08 2.08 2.05 2.01 1.97 1.91 1.90 1.89 1.64 1.69 1.77 1.81 1.88 1.91 1.89 1.84 1.85 1.84 1.84 1.90 2.04 2.20 2.32 2.35 2.36 2.39 2.44 2.48 2.46 2.44 2.42 2.48 2.49 2.43 2.38 2.37
1.85 1.82 1.77 1.76 1.89 2.06 2.12 2.11 2.11 2.07 2.03 2.01 1.94 1.91 1.90 1.82 1.84 1.92 1.95 1.99 2.00 1.95 1.89 1.87 1.85 1.86 1.89 1.91 1.99 2.13 2.21 2.20 2.18 2.27 2.37 2.34 2.29 2.27 2.31 2.35 2.36 2.39 2.37
1.63 1.75 1.78 1.75 1.79 1.84 1.87 1.89 1.88 1.85 1.87 1.88 1.90 1.96 1.97 1.97 2.01 2.05 2.00 1.93 1.88 1.84 1.83 1.80 1.75 1.73 1.77 1.83 1.85 1.83 1.90 1.98 1.95 1.98 2.09 2.16 2.15 2.12 2.15 2.16 2.24 2.32 2.43
1.47 1.64 1.74 1.73 1.70 1.72 1.69 1.62 1.61 1.67 1.77 1.88 1.92 1.93 1.95 1.96 1.95 1.89 1.80 1.71 1.64 1.67 1.71 1.70 1.67 1.58 1.54 1.55 1.59 1.62 1.79 1.84 1.83 1.82 1.82 1.91 1.96 2.00 2.03 2.07 2.15 2.28 2.43
1.48 1.59 1.65 1.64 1.63 1.68 1.73 1.68 1.61 1.64 1.75 1.78 1.82 1.81 1.81 1.81 1.79 1.73 1.65 1.59 1.56 1.56 1.61 1.65 1.59 1.46 1.42 1.42 1.43 1.48 1.50 1.45 1.55 1.70 1.69 1.71 1.85 1.94 1.96 1.98 2.01 2.12 2.22